User: anonymous   Login
Location: Hopkins Observatory
(42.6965°N, 73.1843°W)
Time: 15:26:47
(UTC-04:00)
Language:

UOSAT-12 - Orbit

View from above orbital plane
View from above orbital plane
View from above satellite
View from above satellite

Ground track
Ground track

The orbit data is extracted from the following two-line orbital elements,

1 25693U 99021A   18144.17751559 -.00000079  00000-0  90800-5 0  9993
2 25693  64.5541 154.6655 0049384 267.7067  91.8383 14.80798060 30656
Epoch (UTC): 24 May 2018 04:15:37
Eccentricity: 0.0049384
inclination: 64.5541°
perigee height: 592 km
apogee height: 661 km
right ascension of ascending node: 154.6655°
argument of perigee: 267.7067°
revolutions per day: 14.80798060
mean anomaly at epoch: 91.8383°
orbit number at epoch: 3065

The dashed part of the orbit path shows where the satellite is in the earth's shadow,  

DLR